| time (UTC) | temp F | wind direction | speed knots | gust knots | rain 1hr in | rain 24hr in | rain mn in | humidity % | barometer mb |
| 20260509124018 | 42 | 310 | 8.7 | 14.8 | 0.00 | 0.04 | 0.01 | 69 | 877.0 |
| 20260509123045 | 42 | 331 | 8.7 | 14.8 | 0.00 | 0.04 | 0.01 | 69 | 877.1 |
| 20260509122041 | 42 | 330 | 8.7 | 14.8 | 0.00 | 0.04 | 0.01 | 71 | 877.0 |
| 20260509121024 | 42 | 359 | 8.7 | 15.6 | 0.00 | 0.04 | 0.01 | 72 | 877.0 |
| 20260509120029 | 41 | 359 | 7.8 | 13.0 | 0.00 | 0.04 | 0.01 | 73 | 877.1 |
| 20260509115030 | 41 | 322 | 9.6 | 15.6 | 0.00 | 0.04 | 0.01 | 74 | 877.1 |
| 20260509114034 | 41 | 339 | 8.7 | 16.5 | 0.00 | 0.04 | 0.01 | 75 | 877.1 |
| 20260509113028 | 41 | 319 | 7.8 | 14.8 | 0.00 | 0.04 | 0.01 | 76 | 877.1 |
| 20260509112030 | 41 | 307 | 7.8 | 13.0 | 0.00 | 0.04 | 0.01 | 78 | 877.0 |
| 20260509111034 | 41 | 316 | 8.7 | 14.8 | 0.00 | 0.04 | 0.01 | 79 | 876.9 |
| 20260509110038 | 41 | 359 | 7.0 | 13.0 | 0.00 | 0.04 | 0.01 | 80 | 876.9 |
| 20260509105028 | 41 | 307 | 7.8 | 12.2 | 0.00 | 0.04 | 0.01 | 84 | 876.7 |
| 20260509104051 | 41 | 310 | 7.0 | 10.4 | 0.00 | 0.04 | 0.01 | 87 | 876.7 |
| 20260509103029 | 41 | 359 | 6.1 | 10.4 | 0.00 | 0.04 | 0.01 | 86 | 876.6 |
| 20260509102046 | 41 | 314 | 6.1 | 10.4 | 0.00 | 0.04 | 0.01 | 89 | 876.3 |
| 20260509101028 | 41 | 359 | 5.2 | 9.6 | 0.00 | 0.04 | 0.01 | 93 | 876.2 |
| 20260509100029 | 41 | 316 | 4.3 | 9.6 | 0.00 | 0.04 | 0.01 | 94 | 876.0 |
| 20260509095053 | 42 | 324 | 4.3 | 10.4 | 0.00 | 0.04 | 0.01 | 93 | 876.0 |
| 20260509094033 | 42 | 359 | 5.2 | 9.6 | 0.00 | 0.04 | 0.01 | 90 | 876.1 |
| 20260509093028 | 43 | 317 | 6.1 | 11.3 | 0.00 | 0.04 | 0.01 | 89 | 875.8 |
| 20260509092032 | 44 | 295 | 5.2 | 10.4 | 0.00 | 0.04 | 0.01 | 86 | 875.7 |
| 20260509091053 | 45 | 359 | 4.3 | 9.6 | 0.00 | 0.04 | 0.01 | 86 | 875.8 |
| 20260509090054 | 45 | 310 | 4.3 | 10.4 | 0.00 | 0.04 | 0.01 | 84 | 875.9 |
| 20260509085016 | 46 | 359 | 6.1 | 9.6 | 0.00 | 0.04 | 0.01 | 82 | 875.9 |
| 20260509084039 | 47 | 299 | 7.0 | 13.0 | 0.00 | 0.04 | 0.01 | 78 | 875.9 |
| 20260509083037 | 47 | 315 | 5.2 | 11.3 | 0.00 | 0.04 | 0.01 | 79 | 875.7 |
| 20260509082028 | 47 | 359 | 6.1 | 12.2 | 0.00 | 0.04 | 0.01 | 76 | 875.6 |
| 20260509081029 | 47 | 359 | 5.2 | 13.9 | 0.00 | 0.04 | 0.01 | 79 | 875.5 |
| 20260509080028 | 47 | 359 | 7.0 | 12.2 | 0.00 | 0.04 | 0.01 | 78 | 875.4 |
| 20260509075025 | 47 | 317 | 7.8 | 13.0 | 0.00 | 0.04 | 0.01 | 78 | 875.5 |
| 20260509074024 | 48 | 314 | 7.0 | 13.0 | 0.00 | 0.04 | 0.01 | 77 | 875.6 |
| 20260509073042 | 48 | 299 | 7.8 | 15.6 | 0.00 | 0.04 | 0.01 | 78 | 875.3 |
| 20260509072029 | 48 | 291 | 7.8 | 13.9 | 0.00 | 0.04 | 0.01 | 80 | 875.2 |
| 20260509071029 | 49 | 318 | 8.7 | 13.9 | 0.00 | 0.04 | 0.01 | 80 | 875.2 |
| 20260509070033 | 48 | 303 | 9.6 | 18.2 | 0.00 | 0.04 | 0.01 | 77 | 875.0 |
| 20260509065037 | 49 | 319 | 7.8 | 13.0 | 0.00 | 0.04 | 0.01 | 77 | 875.3 |
| 20260509064041 | 49 | 359 | 6.1 | 10.4 | 0.00 | 0.04 | 0.01 | 78 | 875.1 |
| 20260509063016 | 49 | 359 | 5.2 | 16.5 | 0.00 | 0.04 | 0.01 | 79 | 875.2 |
| 20260509062058 | 49 | 359 | 5.2 | 12.2 | 0.00 | 0.04 | 0.01 | 77 | 875.2 |
| 20260509061031 | 49 | 274 | 7.0 | 13.9 | 0.00 | 0.04 | 0.01 | 78 | 874.9 |
| 20260509060025 | 49 | 359 | 6.1 | 17.4 | 0.00 | 0.04 | 0.01 | 73 | 874.9 |
| 20260509055020 | 49 | 359 | 7.0 | 17.4 | 0.00 | 0.04 | 0.01 | 72 | 875.0 |
| 20260509054042 | 48 | 297 | 5.2 | 19.1 | 0.00 | 0.04 | 0.01 | 74 | 875.1 |
| 20260509053042 | 49 | 359 | 8.7 | 14.8 | 0.00 | 0.04 | 0.01 | 72 | 874.9 |
| 20260509052032 | 48 | 303 | 7.0 | 12.2 | 0.00 | 0.04 | 0.01 | 81 | 874.7 |